Home   Weather   San Luis Potosi   Past weeks

Flag for Mexico Past Weather in San Luis Potosi, San Luis Potosí, Mexico — Yesterday and Last 2 Weeks

Now
55 °F

Clear.


Feels Like: 55 °F
Forecast: 40 / 79 °F
Wind: 5 mph from Southwest

Location: San Luis Potosi - S. L. P.

Current Time: Feb 22, 2017 at 10:59:01 pm

Latest Report: Feb 22, 2017 at 9:43 pm


Visibility: 10 mi

Pressure: 30.16 "Hg (24.11 "Hg at 1876m altitude)

Humidity: 14%

Dew Point: 7 °F

Location of San Luis PotosiLocation

Past Weather in San Luis Potosi — Graph

°F

San Luis Potosi Temperature Yesterday

Maximum temperature yesterday: 73 °F (at 2:50 pm)
Minimum temperature yesterday: 45 °F (at 2:45 am)
Average temperature yesterday: 57 °F

High & Low Weather Summary for the Past Weeks

 TemperatureHumidityPressure
High82 °F (Feb 8, 2:41 pm)100% (Feb 10, 6:58 am)30.47 "Hg (Feb 10, 6:58 am)
Low34 °F (Feb 10, 7:20 am)3% (Feb 11, 4:43 pm)29.69 "Hg (Feb 18, 5:44 pm)
Average60 °F38%30.10 "Hg
* Reported Feb 7 8:45 pm — Feb 22 8:42 pm, San Luis Potosi, Weather by CustomWeather, © 2017

Note: Actual official high and low records may vary slightly from our data, if they occured in-between our weather recording intervals... More about our weather records

Advertising

San Luis Potosi Weather History for the Previous 24 Hours

Scroll right to see more
 ConditionsComfort  
Time TempWeatherWind HumidityBarometerVisibility
8:42 pm
Wed, Feb 22
61 °FClear.6 mph11%29.86 "Hg10 mi
7:40 pm64 °FClear.7 mph9%30.14 "Hg10 mi
6:43 pm70 °FSunny.7 mph6%30.13 "Hg15 mi
5:45 pm75 °FSunny.9 mph3%29.86 "Hg15 mi
4:47 pm79 °FSunny.No wind3%30.14 "Hg15 mi
3:40 pm79 °FSunny.No wind3%30.14 "Hg15 mi
2:50 pm77 °FSunny.No wind3%29.83 "Hg15 mi
1:46 pm75 °FSunny.No wind4%30.21 "Hg15 mi
12:42 pm73 °FSunny.7 mph5%30.25 "Hg15 mi
11:49 am70 °FSunny.No wind8%29.96 "Hg15 mi
10:45 am64 °FSunny.No wind15%30.31 "Hg15 mi
9:44 am55 °FSunny.No wind31%30.32 "Hg12 mi
8:42 am46 °FSunny.No wind43%30.06 "Hg12 mi
7:42 am37 °FSunny.No wind60%30.30 "Hg12 mi
6:44 am37 °FClear.No wind60%30.28 "Hg12 mi
5:45 am37 °FClear.5 mph60%30.01 "Hg8 mi
5:12 am41 °FClear.No wind57%30.25 "Hg10 mi
3:46 am45 °FClear.No wind49%30.25 "Hg10 mi
3:04 am43 °FClear.No wind53%30.00 "Hg10 mi
1:45 am45 °FClear.No wind49%30.28 "Hg8 mi
12:41 am48 °FClear.No wind43%30.29 "Hg10 mi
11:52 pm
Tue, Feb 21
50 °FClear.5 mph40%30.03 "Hg10 mi
10:49 pm50 °FClear.6 mph40%30.30 "Hg10 mi
Weather by CustomWeather, © 2017

See weather overviewHow to use our weather pages